ATLAS 5 CENTAUR DEB, 44645

Orbit data source: Space-Track

ATLAS 5 CENTAUR DEB, 44645 is space debris in HEO originally from a launch on Wed, 17 Oct 2018 UTC launched from the Air Force Eastern Test Range (AFETR). Debris objects in space refer to the collection of defunct objects orbiting the Earth. Examples of debris include non-operational satellites, rocket bodies, and fragments generated from explosions, collisions, or faulty payload assembly.

Loading next visibility...
Identifier
44645, 2018-079F
Orbit
HEO
Last TLE update
2 days ago
Origin
Flag of USUnited Launch Alliance/Lockheed Martin (US)
Manufacturer
ULA Decatur
Mission
Spacecraft
Bus & Motor
Unknown
Mass
Unknown
Launch date (UTC)
2018-10-17 (7 years ago)
Launch vehicle
Unknown
Launch site
Air Force Eastern Test Range (AFETR)
Object type
Payload
Rocket body
Debris
Shape & HBR
Unknown
Radar Cross Section
RCS unknown

Expand to show TLE details & history

TLE from 2 days ago
0 ATLAS 5 CENTAUR DEB
1 44645U 18079F   25188.30183873 -.00000126  00000-0  00000-0 0  9995
2 44645  13.0889  47.8685 4633754 293.4198  25.0681  1.89806903 46499
Epoch: 2025-07-07T07:14Z
TLE epoch observation values (Epoch: 2025-07-07T07:14:38.866Z)
Latitude
0.00006°
Longitude
13.68029°
Altitude
11,923.346 km
Speed
5.394 km/s
True Right ascension
03h 11m 25s
True Declination
0° 00' 00"
Sunlit
Object was in daylight at epoch
Visualization orbit readout
Latitude
12.57359°
Longitude
120.25524°
Altitude
33,647.427 km
Speed
2.335 km/s
Apparent Right ascension
10h 43m 01s
Apparent Declination
6° 25' 18"
Sunlit
Object is in daylight
Visualization observer readout
Local Sidereal Time
02:48:57
Azimuth
65.92° ENE
Elevation
-16.985°
Doppler factor
1
Orbital elements
Apogee altitude
33,947.689 km
Perigee altitude
8,409.477 km
Semi-major axis
27,556.72 km
Eccentricity
0.46338
Inclination
13.0889°
RAAN
47.8685°
Arg. of periapsis
293.4198°
True anomaly
Unknown
Mean anomaly
25.0681°
Eccentric anomaly
Unknown
Mean motion
0.47446 °/min
Orbital period
758.75 mins
BSTAR
0
Loading maneuver chart data...
Loading SW <> Apogee altitude chart data...

ATLAS 5 CENTAUR DEB Visibility forecast

Observer location: undefined°, undefined°

Span
Click to sort rows by Start time (UTC) header in descending order
Start Az.
Max El. time (UTC)
Max El. Az.
Max El.
End time (UTC)
End Az.
44 mins2025-07-10 09:54:16.301Z201.406° SSW2025-07-10 10:16:16.301Z169.246° S12.814°2025-07-10 10:38:16.301Z138.225° SSE
|